FW1042 Weather Reports


Display with metric or nautical units.
time (UTC)temp
F
wind
direction
speed
MPH
gust
MPH
rain 1hr
in
rain 24hr
in
rain mn
in
humidity
%
barometer
mb
20260505022428 76 229 5.0 15.0 0.00 0.00 0.00 69 1005.7
20260505021927 76 172 5.0 15.0 0.00 0.00 0.00 69 1005.6
20260505021426 76 208 6.0 14.0 0.00 0.00 0.00 69 1005.7
20260505020926 76 177 6.0 17.0 0.00 0.00 0.00 69 1005.7
20260505020424 76 161 5.0 17.0 0.00 0.00 0.00 68 1005.5
20260505015925 76 186 5.0 11.0 0.00 0.00 0.00 68 1005.6
20260505015423 76 188 5.0 13.0 0.00 0.00 0.00 68 1005.6
20260505014924 76 130 5.0 13.0 0.00 0.00 0.00 68 1005.6
20260505014418 76 136 5.0 12.0 0.00 0.00 0.00 67 1005.6
20260505013912 76 150 6.0 13.0 0.00 0.00 0.00 67 1005.5
20260505013701 76 202 6.0 13.0 0.00 0.00 0.00 67 1005.7
20260505012900 76 177 6.0 20.0 0.00 0.00 0.00 66 1005.6
20260505012400 77 192 6.0 20.0 0.00 0.00 0.00 66 1005.8
20260505011906 77 118 6.0 13.0 0.00 0.00 0.00 66 1005.6
20260505011402 77 130 5.0 13.0 0.00 0.00 0.00 66 1005.7
20260505010901 77 200 4.0 11.0 0.00 0.00 0.00 66 1005.5
20260505010400 77 167 6.0 13.0 0.00 0.00 0.00 65 1005.7
20260505005900 77 195 6.0 17.0 0.00 0.00 0.00 65 1005.6
20260505005401 77 167 5.0 17.0 0.00 0.00 0.00 65 1005.6
20260505004901 78 211 6.0 13.0 0.00 0.00 0.00 64 1005.4
20260505004404 78 153 6.0 14.0 0.00 0.00 0.00 64 1005.5
20260505003902 78 169 7.0 21.0 0.00 0.00 0.00 64 1005.6
20260505003653 78 140 8.0 21.0 0.00 0.00 0.00 63 1005.5
20260505002903 78 163 7.0 20.0 0.00 0.00 0.00 63 1005.6
20260505002358 78 146 8.0 16.0 0.00 0.00 0.00 62 1005.7
20260505001857 78 169 9.0 19.0 0.00 0.00 0.00 62 1005.7
20260505001649 79 169 8.0 22.0 0.00 0.00 0.00 61 1005.8
20260505000900 79 174 6.0 22.0 0.00 0.00 0.00 61 1005.8
20260505000656 79 236 8.0 16.0 0.00 0.00 0.00 61 1005.8
20260504235854 80 190 7.0 18.0 0.00 0.00 0.00 61 1005.7
20260504235354 80 175 6.0 18.0 0.00 0.00 0.00 60 1005.7
20260504234855 80 147 6.0 16.0 0.00 0.00 0.00 60 1005.7
20260504234654 80 196 6.0 16.0 0.00 0.00 0.00 60 1005.8
20260504233943 80 208 7.0 14.0 0.00 0.00 0.00 60 1005.9
20260504233928 80 135 7.0 13.0 0.00 0.00 0.00 60 1005.9
20260504232852 80 186 7.0 15.0 0.00 0.00 0.00 60 1006.0
20260504232353 80 202 7.0 18.0 0.00 0.00 0.00 59 1005.8
20260504232150 81 193 8.0 24.0 0.00 0.00 0.00 58 1005.8
20260504231352 81 167 7.0 24.0 0.00 0.00 0.00 58 1005.8
20260504230853 82 40 7.0 17.0 0.00 0.00 0.00 58 1005.9
20260504230352 82 135 8.0 17.0 0.00 0.00 0.00 57 1006.1
20260504225856 82 132 7.0 16.0 0.00 0.00 0.00 56 1006.1
20260504225352 83 259 7.0 18.0 0.00 0.00 0.00 56 1005.9
20260504224852 83 144 8.0 18.0 0.00 0.00 0.00 56 1005.9
20260504224352 83 182 8.0 16.0 0.00 0.00 0.00 56 1006.2
20260504223852 83 157 8.0 16.0 0.00 0.00 0.00 55 1006.2
20260504223352 83 140 7.0 17.0 0.00 0.00 0.00 55 1006.3
20260504222853 83 164 6.0 17.0 0.00 0.00 0.00 54 1006.2
20260504222356 83 144 7.0 17.0 0.00 0.00 0.00 55 1006.1
20260504221850 83 142 7.0 20.0 0.00 0.00 0.00 55 1006.1
20260504221650 83 126 7.0 20.0 0.00 0.00 0.00 54 1006.1
20260504220850 83 80 8.0 20.0 0.00 0.00 0.00 55 1006.2
20260504220643 83 213 9.0 20.0 0.00 0.00 0.00 55 1006.3
20260504215850 83 173 8.0 18.0 0.00 0.00 0.00 55 1006.3
20260504215351 83 163 7.0 16.0 0.00 0.00 0.00 54 1006.4
20260504214850 83 171 8.0 18.0 0.00 0.00 0.00 54 1006.6
20260504214351 83 181 8.0 21.0 0.00 0.00 0.00 54 1006.7
20260504213850 83 150 8.0 21.0 0.00 0.00 0.00 53 1006.9
20260504213350 83 184 7.0 16.0 0.00 0.00 0.00 55 1006.9
20260504212850 83 195 7.0 15.0 0.00 0.00 0.00 54 1007.1
20260504212700 83 171 8.0 20.0 0.00 0.00 0.00 54 1007.0
20260504211850 83 181 8.0 20.0 0.00 0.00 0.00 53 1007.0
20260504211350 83 218 7.0 16.0 0.00 0.00 0.00 55 1007.2
20260504211147 83 167 8.0 18.0 0.00 0.00 0.00 54 1007.3
20260504210350 83 163 7.0 18.0 0.00 0.00 0.00 53 1007.4
20260504205850 83 136 7.0 17.0 0.00 0.00 0.00 53 1007.5
20260504205702 83 153 8.0 18.0 0.00 0.00 0.00 54 1007.6
20260504204850 83 194 8.0 19.0 0.00 0.00 0.00 54 1007.7
20260504204355 83 185 8.0 19.0 0.00 0.00 0.00 54 1007.8
20260504203852 83 230 8.0 16.0 0.00 0.00 0.00 54 1007.8
20260504203348 82 158 9.0 27.0 0.00 0.00 0.00 54 1007.9
20260504203145 82 114 8.0 16.0 0.00 0.00 0.00 54 1008.1
20260504202703 82 173 8.0 19.0 0.00 0.00 0.00 54 1008.0
20260504202143 83 242 8.0 19.0 0.00 0.00 0.00 53 1008.2
20260504201344 83 175 7.0 16.0 0.00 0.00 0.00 53 1008.2
20260504200844 83 180 8.0 22.0 0.00 0.00 0.00 53 1008.4
20260504200659 83 211 8.0 22.0 0.00 0.00 0.00 52 1008.5
20260504195842 83 207 7.0 16.0 0.00 0.00 0.00 54 1008.7
20260504195352 82 144 8.0 17.0 0.00 0.00 0.00 54 1008.7
20260504194844 82 205 8.0 17.0 0.00 0.00 0.00 53 1008.8
20260504194338 82 333 8.0 22.0 0.00 0.00 0.00 54 1008.7
20260504194137 82 194 8.0 22.0 0.00 0.00 0.00 54 1008.9
20260504193338 82 117 8.0 18.0 0.00 0.00 0.00 53 1009.0
20260504192838 81 140 9.0 18.0 0.00 0.00 0.00 54 1008.9
20260504192343 81 123 8.0 17.0 0.00 0.00 0.00 54 1009.0
20260504191838 81 111 8.0 16.0 0.00 0.00 0.00 55 1009.2
20260504191338 80 144 9.0 24.0 0.00 0.00 0.00 55 1009.3
20260504190838 80 221 9.0 24.0 0.00 0.00 0.00 54 1009.7
20260504190336 80 186 8.0 19.0 0.00 0.00 0.00 54 1009.8
20260504190152 81 192 7.0 19.0 0.00 0.00 0.00 53 1009.7
20260504185337 80 147 8.0 18.0 0.00 0.00 0.00 54 1009.7
20260504185135 80 202 8.0 19.0 0.00 0.00 0.00 55 1009.8
20260504184336 80 140 7.0 19.0 0.00 0.00 0.00 54 1009.9
20260504184130 80 240 7.0 18.0 0.00 0.00 0.00 55 1009.8
20260504183336 80 168 8.0 18.0 0.00 0.00 0.00 55 1010.0
20260504182837 80 188 8.0 20.0 0.00 0.00 0.00 54 1010.0
20260504182336 80 139 8.0 21.0 0.00 0.00 0.00 54 1010.0
20260504181836 80 217 7.0 21.0 0.00 0.00 0.00 54 1010.4
20260504181336 80 192 7.0 20.0 0.00 0.00 0.00 55 1010.5
20260504180836 80 190 8.0 20.0 0.00 0.00 0.00 53 1010.6
20260504180336 80 154 7.0 16.0 0.00 0.00 0.00 54 1010.7
20260504175836 80 157 6.0 16.0 0.00 0.00 0.00 54 1010.5
20260504175630 80 225 7.0 21.0 0.00 0.00 0.00 53 1010.6
20260504174838 80 186 7.0 21.0 0.00 0.00 0.00 53 1010.6
20260504174625 79 177 8.0 18.0 0.00 0.00 0.00 54 1010.8
20260504173831 78 192 8.0 18.0 0.00 0.00 0.00 54 1010.9
20260504173331 78 168 7.0 15.0 0.00 0.00 0.00 55 1011.1
20260504172829 78 130 8.0 17.0 0.00 0.00 0.00 54 1011.0
20260504172623 77 193 8.0 19.0 0.00 0.00 0.00 55 1011.1
20260504172126 77 219 9.0 20.0 0.00 0.00 0.00 54 1011.2
20260504171330 77 209 9.0 20.0 0.00 0.00 0.00 53 1011.3
20260504170830 77 171 9.0 18.0 0.00 0.00 0.00 53 1011.4
20260504170330 77 208 8.0 20.0 0.00 0.00 0.00 54 1011.5
20260504160327 75 130 9.0 21.0 0.00 0.00 0.00 54 1012.0
20260504150819 72 203 8.0 19.0 0.00 0.00 0.00 62 1012.8
20260504150319 71 159 8.0 18.0 0.00 0.00 0.00 64 1012.9
20260504141315 68 192 9.0 20.0 0.00 0.00 0.00 68 1012.9
20260504140815 68 188 8.0 18.0 0.00 0.00 0.00 69 1012.8
20260504140313 68 169 8.0 22.0 0.00 0.00 0.00 69 1012.9
20260504130301 65 213 5.0 15.0 0.00 0.00 0.00 74 1013.1
20260504120244 64 177 6.0 15.0 0.00 0.00 0.00 72 1012.6
20260504110525 64 188 5.0 14.0 0.00 0.00 0.00 72 1012.5
20260504100219 64 154 5.0 13.0 0.00 0.00 0.00 69 1012.9
20260504081703 65 219 3.0 12.0 0.00 0.00 0.00 60 1013.3
20260504081202 65 138 4.0 9.0 0.00 0.00 0.00 60 1013.4
20260504080701 65 194 4.0 9.0 0.00 0.00 0.00 60 1013.5
20260504080205 65 147 3.0 8.0 0.00 0.00 0.00 60 1013.6
20260504070147 67 167 4.0 10.0 0.00 0.00 0.00 58 1014.2
20260504050631 69 136 3.0 8.0 0.00 0.00 0.00 54 1015.2
20260504050131 69 185 3.0 7.0 0.00 0.00 0.00 54 1015.3
20260504045630 69 130 3.0 7.0 0.00 0.00 0.00 53 1015.3
20260504045426 69 208 3.0 7.0 0.00 0.00 0.00 53 1015.4
20260504044629 69 173 3.0 9.0 0.00 0.00 0.00 52 1015.4
20260504044126 69 200 4.0 10.0 0.00 0.00 0.00 51 1015.5
20260504043626 69 158 3.0 10.0 0.00 0.00 0.00 51 1015.6
20260504043127 70 191 3.0 11.0 0.00 0.00 0.00 50 1015.7
20260504042627 70 165 3.0 11.0 0.00 0.00 0.00 50 1015.8
20260504042127 70 227 4.0 10.0 0.00 0.00 0.00 50 1015.6
20260504041626 70 146 4.0 10.0 0.00 0.00 0.00 49 1015.7
20260504041126 70 189 4.0 10.0 0.00 0.00 0.00 49 1015.7
20260504040629 70 196 4.0 9.0 0.00 0.00 0.00 49 1015.7
20260504040126 71 189 4.0 9.0 0.00 0.00 0.00 49 1015.6
20260504035627 71 118 4.0 9.0 0.00 0.00 0.00 49 1015.6
20260504035126 71 197 4.0 9.0 0.00 0.00 0.00 49 1015.6
20260504034627 71 171 4.0 9.0 0.00 0.00 0.00 49 1015.7
20260504034126 71 212 3.0 7.0 0.00 0.00 0.00 48 1015.6
20260504033626 71 178 3.0 7.0 0.00 0.00 0.00 48 1015.6
20260504033126 71 216 4.0 10.0 0.00 0.00 0.00 48 1015.6
20260504032626 71 172 4.0 10.0 0.00 0.00 0.00 48 1015.6
20260504032126 71 213 3.0 10.0 0.00 0.00 0.00 48 1015.6
20260504031624 72 146 3.0 9.0 0.00 0.00 0.00 48 1015.6
20260504031124 72 204 3.0 9.0 0.00 0.00 0.00 47 1015.6
20260504030919 72 186 3.0 9.0 0.00 0.00 0.00 47 1015.5
20260504030125 72 140 4.0 10.0 0.00 0.00 0.00 47 1015.5
20260504025624 72 144 4.0 10.0 0.00 0.00 0.00 46 1015.4
20260504025125 72 179 3.0 8.0 0.00 0.00 0.00 46 1015.5
20260504024622 73 186 3.0 8.0 0.00 0.00 0.00 46 1015.4
20260504024123 73 171 3.0 8.0 0.00 0.00 0.00 45 1015.3
20260504023622 73 206 3.0 9.0 0.00 0.00 0.00 45 1015.4
20260504023121 73 180 4.0 9.0 0.00 0.00 0.00 44 1015.5